X  Close Rain until tomorrow morning.
Conditions Temperature Feels Precipitation Wind Wind Direction UV index Pressure
05:00 rain Possible Light Rain and Windy 10° 6° 0.38 mm 62% 20-41 mph WSW WSW - 1000,0
06:00 rain Drizzle and Windy 10° 0.11 mm 75% 21-41 mph WSW WSW - 1000,5
07:00 wind Windy and Overcast 10° 0.08 mm 20% 22-41 mph West West - 1000,8
08:00 wind Windy and Mostly Cloudy 10° 6° 0.07 mm 17% 21-41 mph West West - 1001,1
09:00 partly-cloudy-day Mostly Cloudy 10° 6° 0.08 mm 12% 21-38 mph West West - 1001,4
10:00 partly-cloudy-day Mostly Cloudy 10° 6° 0.06 mm 6% 20-35 mph SW SW - 1001,9
11:00 cloudy Overcast 10° 6° 0.04 mm 3% 21-34 mph WNW WNW uv-1 1002,2
12:00 wind Windy and Overcast 10° 0.01 mm 3% 23-39 mph West West uv-1 1003,4
13:00 partly-cloudy-day Mostly Cloudy 10° 0.02 mm 3% 21-38 mph WNW WNW uv-1 1003,4
14:00 cloudy Overcast 11° 0.04 mm 3% 20-37 mph SW SW uv-1 1003,2
15:00 cloudy Overcast 11° 0.06 mm 4% 18-36 mph WSW WSW - 1002,7
16:00 cloudy Overcast 10° 0.07 mm 9% 15-31 mph WSW WSW - 1002,1
17:00 cloudy Overcast 10° 0.07 mm 14% 12-27 mph SW SW - 1001,3
18:00 rain Possible Drizzle 10° 0.15 mm 35% 12-26 mph SSW SSW - 999,6
19:00 rain Possible Light Rain 10° 0.4 mm 56% 13-30 mph SSW SSW - 998,5
20:00 rain Rain 10° 1.38 mm 80% 14-30 mph SW SW - 997,5
21:00 rain Rain 10° 1.71 mm 86% 16-35 mph SW SW - 996,6
22:00 rain Rain 10° 1.05 mm 67% 18-36 mph WSW WSW - 996,6
23:00 rain Possible Light Rain 10° 6° 0.27 mm 39% 19-35 mph WSW WSW - 996,8
00:00 rain Possible Drizzle 9° 5° 0.14 mm 30% 19-33 mph West West - 997,5
01:00 partly-cloudy-night Partly Cloudy 9° 5° 0.01 mm 3% 19-34 mph WSW WSW - 998,2
02:00 partly-cloudy-night Partly Cloudy 8° 5° 0.03 mm 9% 18-35 mph WSW WSW - 997,5
03:00 partly-cloudy-night Partly Cloudy 8° 4° 0.1 mm 14% 18-38 mph WSW WSW - 996,8
04:00 partly-cloudy-night Partly Cloudy 8° 4° 0.06 mm 13% 18-37 mph WSW WSW - 995,9
05:00 rain Possible Light Rain 8° 4° 0.38 mm 45% 18-38 mph WSW WSW - 995,0
06:00 rain Possible Light Rain and Windy 8° 4° 0.25 mm 41% 20-44 mph WSW WSW - 994,3
07:00 rain Possible Drizzle and Windy 8° 4° 0.19 mm 32% 21-46 mph West West - 994,7
08:00 wind Windy and Overcast 8° 4° 0.12 mm 25% 20-43 mph West West - 995,2
09:00 rain Possible Light Rain and Windy 8° 4° 0.24 mm 37% 20-40 mph WSW WSW - 996,2
10:00 rain Possible Drizzle and Windy 8° 4° 0.19 mm 28% 20-39 mph SSW SSW - 997,2
11:00 cloudy Overcast 9° 5° 0.12 mm 16% 20-37 mph NNW NNW uv-1 998,5
12:00 cloudy Overcast 9° 6° 0.07 mm 6% 18-27 mph WNW WNW uv-1 1000,5
13:00 partly-cloudy-day Mostly Cloudy 10° 6° 0.01 mm 2% 16-24 mph NW NW uv-1 1001,5
14:00 partly-cloudy-day Mostly Cloudy 10° 6° - 15-22 mph SSW SSW uv-1 1001,9
15:00 partly-cloudy-day Mostly Cloudy 9° 0.01 mm 3% 13-19 mph West West - 1002,6
16:00 partly-cloudy-day Mostly Cloudy 9° 0.01 mm 4% 11-17 mph West West - 1002,7
17:00 partly-cloudy-night Mostly Cloudy 8° 0.02 mm 4% 9-16 mph West West - 1002,6
18:00 partly-cloudy-night Mostly Cloudy 8° 0.02 mm 4% 7-9 mph WSW WSW - 1002,7
19:00 cloudy Overcast 8° 0.01 mm 4% 6-7 mph SW SW - 1002,8
20:00 cloudy Overcast 7° - 6-7 mph South South - 1002,6
21:00 cloudy Overcast 7° - 6-9 mph SW SW - 1001,9
22:00 cloudy Overcast 7° 0.01 mm 5% 7-10 mph SSW SSW - 1001,0
23:00 rain Possible Drizzle 7° 0.07 mm 28% 8-14 mph South South - 999,0
00:00 rain Light Rain 7° 0.46 mm 73% 9-21 mph SSE SSE - 999,0
01:00 rain Rain 7° 4° 0.91 mm 84% 12-26 mph SE SE - 997,9
02:00 rain Rain 7° 4° 1.18 mm 86% 13-28 mph ESE ESE - 996,7
03:00 rain Rain 7° 3° 1.55 mm 87% 15-30 mph ESE ESE - 995,3
04:00 rain Rain 7° 3° 1.73 mm 88% 15-29 mph ESE ESE - 994,2
05:00 rain Rain 6° 3° 1.77 mm 87% 15-25 mph East Easterly - 993,4